Satellite-Ground Cal/Val Site Overpasses Predictions

Prediction of Satellite NPP Overpassing Cal/Val Site: Antarctic Dome C

Ground Cal/Val Site Location: Latitude: -75.10, Longitude: 123.35; Satellite-Ground Site NADIR distance within 100 km.

Table of predicted overpasses for the next 14.0 days since TLE Epoch: 1/25/2019
Interval Starting Time Ending Time Minimum Distance Time Minimum Distance (km)
1 01/26/2019 07:44:18 01/26/2019 07:44:38 01/26/2019 07:44:28 73.52
2 01/27/2019 07:25:25 01/27/2019 07:25:53 01/27/2019 07:25:39 34.26
3 01/29/2019 15:07:52 01/29/2019 15:07:58 01/29/2019 15:07:55 97.49
4 01/30/2019 14:48:50 01/30/2019 14:49:19 01/30/2019 14:49:04 13.93
5 02/01/2019 07:31:39 02/01/2019 07:32:09 02/01/2019 07:31:54 2.28
6 02/04/2019 14:55:05 02/04/2019 14:55:33 02/04/2019 14:55:19 22.47
7 02/05/2019 14:36:22 02/05/2019 14:36:38 02/05/2019 14:36:30 84.61
8 02/06/2019 07:37:54 02/06/2019 07:38:21 02/06/2019 07:38:08 38.15


NCC Satellite Cal/Val Overpasses Prediction Service
